Volver al catálogo

COSMOS 2039

ActivoNavegaciónPO
NORAD 20233·PAYLOAD·🇷🇺 Russia

Lanzado Sep 14, 1989 desde Plesetsk Cosmodrome

Loading…

Próximos Pases (próximas 24 horas)

TLE

ActualizadoSource: Space-Track

Época: Sep 14, 2026, 20:53 UTC

1 20233U 89074B   26257.87038380  .00000029  00000-0  98341-4 0  9997
2 20233  82.5795 126.4203 0014604 149.2654 229.7318 12.66285863709951

Sigue COSMOS 2039 en tiempo real con AllMySat

Download on the App Store